YO6RK-13 Weather Reports


time (UTC)temp
C
wind
direction
speed
KPH
gust
KPH
rain 1hr
cm
rain 24hr
cm
rain mn
cm
humidity
%
barometer
mb
20260503230024 7 315 0.0 0.0 0.00 0.00 0.00 66 1015.8
20260503225021 7 315 0.0 0.0 0.00 0.00 0.00 65 1016.0
20260503224530 7 315 0.0 0.0 0.00 0.00 0.00 66 1016.1
20260503223015 7 315 0.0 0.0 0.00 0.00 0.00 64 1016.2
20260503222022 7 315 0.0 0.0 0.00 0.00 0.00 63 1016.2
20260503221519 7 315 0.0 0.0 0.00 0.00 0.00 63 1016.1
20260503221028 7 315 0.0 0.0 0.00 0.00 0.00 63 1016.2
20260503220527 7 315 0.0 0.0 0.00 0.00 0.00 63 1016.3
20260503220027 7 315 0.0 0.0 0.00 0.00 0.00 64 1016.3
20260503215518 7 315 0.0 0.0 0.00 0.00 0.00 64 1016.4
20260503215025 7 315 0.0 0.0 0.00 0.00 0.00 65 1016.4
20260503214533 7 315 0.0 0.0 0.00 0.00 0.00 67 1016.5
20260503214033 7 315 0.0 0.0 0.00 0.00 0.00 69 1016.6
20260503213514 6 315 0.0 0.0 0.00 0.00 0.00 71 1016.6
20260503213031 6 293 0.0 0.0 0.00 0.00 0.00 72 1016.5
20260503212522 6 293 0.0 0.0 0.00 0.00 0.00 71 1016.5
20260503212023 6 293 0.0 0.0 0.00 0.00 0.00 70 1016.5
20260503211512 6 293 0.0 0.0 0.00 0.00 0.00 70 1016.5
20260503211020 7 293 0.0 0.0 0.00 0.00 0.00 70 1016.4
20260503210532 7 293 0.0 0.0 0.00 0.00 0.00 70 1016.4
20260503210024 7 293 0.0 0.0 0.00 0.00 0.00 69 1016.3
20260503205523 7 293 0.0 0.0 0.00 0.00 0.00 68 1016.3
20260503205029 7 293 0.0 0.0 0.00 0.00 0.00 68 1016.4
20260503204521 7 293 0.0 0.0 0.00 0.00 0.00 66 1016.4
20260503204029 7 293 0.0 0.0 0.00 0.00 0.00 66 1016.5
20260503203522 7 293 0.0 0.0 0.00 0.00 0.00 64 1016.5
20260503203012 8 293 0.0 0.0 0.00 0.00 0.00 62 1016.6
20260503202528 8 293 0.0 0.0 0.00 0.00 0.00 59 1016.6
20260503202020 8 293 0.0 0.0 0.00 0.00 0.00 59 1016.5
20260503201527 8 293 0.0 0.0 0.00 0.00 0.00 58 1016.5
20260503201033 8 293 0.0 0.0 0.00 0.00 0.00 58 1016.5
20260503200517 8 293 0.0 0.0 0.00 0.00 0.00 58 1016.6
20260503195531 8 293 0.0 0.0 0.00 0.00 0.00 56 1016.5
20260503195030 9 293 0.0 0.0 0.00 0.00 0.00 55 1016.6
20260503194029 9 158 0.0 0.0 0.00 0.00 0.00 53 1016.5
20260503193521 9 158 0.0 0.0 0.00 0.00 0.00 52 1016.5
20260503192518 8 158 0.0 0.0 0.00 0.00 0.00 52 1016.5
20260503192026 9 158 0.0 0.0 0.00 0.00 0.00 52 1016.3
20260503191509 9 158 0.0 0.0 0.00 0.00 0.00 50 1016.5
20260503191025 10 158 0.0 0.0 0.00 0.00 0.00 49 1016.3
20260503190028 10 158 0.0 0.0 0.00 0.00 0.00 48 1016.2
20260503185526 10 158 0.0 0.0 0.00 0.00 0.00 48 1016.1
20260503185032 10 158 0.0 0.0 0.00 0.00 0.00 48 1016.2
20260503184022 10 158 0.0 0.0 0.00 0.00 0.00 46 1016.2
20260503183029 10 158 0.0 0.0 0.00 0.00 0.00 47 1016.2
20260503182529 11 158 0.0 0.0 0.00 0.00 0.00 47 1016.1
20260503182020 11 158 0.0 0.0 0.00 0.00 0.00 46 1016.1
20260503181019 11 158 0.0 0.0 0.00 0.00 0.00 45 1016.0
20260503180509 11 158 0.0 0.0 0.00 0.00 0.00 45 1016.0
20260503180009 11 158 0.0 0.0 0.00 0.00 0.00 45 1016.1
20260503175519 11 158 0.0 0.0 0.00 0.00 0.00 44 1016.1
20260503174517 12 158 0.0 0.0 0.00 0.00 0.00 43 1016.0
20260503174024 12 158 0.0 0.0 0.00 0.00 0.00 43 1015.9
20260503173515 12 158 0.0 0.0 0.00 0.00 0.00 43 1015.9
20260503173023 12 158 0.0 0.0 0.00 0.00 0.00 42 1016.1
20260503172523 12 158 0.0 0.0 0.00 0.00 0.00 41 1015.9
20260503172029 12 158 0.0 0.0 0.00 0.00 0.00 40 1015.9
20260503171513 13 158 0.0 0.0 0.00 0.00 0.00 39 1015.9
20260503171036 13 158 0.0 0.0 0.00 0.00 0.00 39 1016.0
20260503170528 13 158 0.0 0.0 0.00 0.00 0.00 38 1016.0
20260503150522 14 203 0.0 0.0 0.00 0.00 0.00 34 1016.5
20260503130528 13 203 0.0 0.0 0.00 0.00 0.00 35 1017.7
20260503110524 13 203 0.0 0.0 0.00 0.10 0.00 35 1019.1
20260503081537 11 0 6.4 6.4 0.00 0.15 0.00 44 1020.5
20260503080509 11 158 0.0 0.0 0.00 0.15 0.00 51 1020.6
20260503072533 10 0 0.0 0.0 0.00 0.15 0.00 64 1020.6
20260503072023 10 0 0.0 0.0 0.00 0.15 0.00 61 1020.5
20260503071529 11 113 1.6 1.6 0.00 0.15 0.00 60 1020.5
20260503071029 10 113 0.0 0.0 0.00 0.15 0.00 62 1020.6
20260503070544 10 23 0.0 0.0 0.00 0.15 0.00 63 1020.6
20260503055018 5 90 0.0 0.0 0.00 0.15 0.00 76 1020.7
20260503054534 5 90 1.6 1.6 0.00 0.15 0.00 73 1020.5
20260503054033 5 90 0.0 0.0 0.00 0.15 0.00 76 1020.5
20260503053513 4 90 0.0 0.0 0.00 0.15 0.00 77 1020.5
20260503053022 5 90 0.0 0.0 0.00 0.15 0.00 77 1020.5
20260503052521 4 90 0.0 0.0 0.00 0.15 0.00 79 1020.6
20260503052028 3 90 0.0 0.0 0.00 0.15 0.00 79 1020.6
20260503051520 3 90 0.0 0.0 0.00 0.15 0.00 81 1020.6
20260503051027 3 90 0.0 0.0 0.00 0.15 0.00 82 1020.5
20260503050542 3 90 0.0 0.0 0.00 0.15 0.00 84 1020.5
20260503050050 2 90 0.0 0.0 0.00 0.15 0.00 86 1020.5
20260503045524 2 90 0.0 0.0 0.00 0.15 0.00 90 1020.5
20260503045024 1 90 0.0 0.0 0.00 0.15 0.00 90 1020.5
20260503044527 0 90 0.0 0.0 0.00 0.15 0.00 91 1020.5
20260503044034 0 90 0.0 0.0 0.00 0.15 0.00 91 1020.4
20260503043521 0 90 0.0 0.0 0.00 0.15 0.00 91 1020.4
20260503042527 0 90 0.0 0.0 0.00 0.15 0.00 92 1020.4
20260503041540 0 90 0.0 0.0 0.00 0.15 0.00 92 1020.3
20260503041010 0 90 0.0 0.0 0.00 0.15 0.00 92 1020.2
20260503040513 0 90 0.0 0.0 0.00 0.15 0.00 92 1020.1
20260503040026 0 90 0.0 0.0 0.00 0.15 0.00 92 1020.1
20260503035528 0 90 0.0 0.0 0.00 0.15 0.00 92 1020.1
20260503035040 0 90 0.0 0.0 0.00 0.15 0.00 92 1020.2
20260503034518 -1 90 0.0 0.0 0.00 0.15 0.00 92 1020.1
20260503034028 -1 90 0.0 0.0 0.00 0.15 0.00 92 1020.1
20260503033524 -1 90 0.0 0.0 0.00 0.15 0.00 92 1020.0
20260503032521 -1 90 0.0 0.0 0.00 0.15 0.00 92 1019.8
20260503032015 -1 90 0.0 0.0 0.00 0.15 0.00 92 1019.9
20260503031528 -1 90 0.0 0.0 0.00 0.15 0.00 92 1019.8
20260503031013 -1 90 0.0 0.0 0.00 0.15 0.00 92 1019.8
20260503030533 -1 90 0.0 0.0 0.00 0.15 0.00 92 1019.8
20260503030157 -1 90 0.0 0.0 0.00 0.15 0.00 91 1019.8
20260503025531 -1 90 0.0 0.0 0.00 0.15 0.00 91 1019.6
20260503025026 -1 90 0.0 0.0 0.00 0.15 0.00 91 1019.7
20260503024513 -1 90 0.0 0.0 0.00 0.15 0.00 91 1019.6
20260503024015 -1 90 0.0 0.0 0.00 0.15 0.00 91 1019.7
20260503023522 -1 90 0.0 0.0 0.00 0.15 0.00 91 1019.7
20260503023027 -1 90 0.0 0.0 0.00 0.15 0.00 91 1019.6
20260503022512 -1 90 0.0 0.0 0.00 0.15 0.00 91 1019.5
20260503021515 -1 90 0.0 0.0 0.00 0.15 0.00 91 1019.5
20260503021035 -1 90 0.0 0.0 0.00 0.15 0.00 91 1019.5
20260503020517 -1 90 0.0 0.0 0.00 0.15 0.00 91 1019.5
20260503020011 -1 90 0.0 0.0 0.00 0.15 0.00 91 1019.6
20260503015018 0 90 0.0 0.0 0.00 0.15 0.00 91 1019.5
20260503014521 0 90 0.0 0.0 0.00 0.15 0.00 91 1019.5
20260503014033 0 90 0.0 0.0 0.00 0.15 0.00 91 1019.5
20260503013538 0 90 0.0 0.0 0.00 0.15 0.00 91 1019.4
20260503013025 0 90 0.0 0.0 0.00 0.15 0.00 91 1019.5
20260503012512 0 90 0.0 0.0 0.00 0.15 0.00 91 1019.7
20260503012030 0 90 0.0 0.0 0.00 0.15 0.00 91 1019.8
20260503011518 0 90 0.0 0.0 0.00 0.15 0.00 91 1019.7
20260503011020 0 90 0.0 0.0 0.00 0.15 0.00 91 1019.8
20260503010524 0 90 0.0 0.0 0.00 0.15 0.00 91 1019.7
20260503010018 0 90 0.0 0.0 0.00 0.15 0.00 90 1019.7
20260503005515 0 90 0.0 0.0 0.00 0.15 0.00 90 1019.6
20260503005021 0 90 0.0 0.0 0.00 0.15 0.00 91 1019.6
20260503004516 0 90 0.0 0.0 0.00 0.15 0.00 91 1019.5
20260503003523 0 90 0.0 0.0 0.00 0.15 0.00 91 1019.6
20260503002512 0 90 0.0 0.0 0.00 0.15 0.00 91 1019.5
20260503002015 0 90 0.0 0.0 0.00 0.15 0.00 91 1019.6
20260503001537 0 90 0.0 0.0 0.00 0.15 0.00 91 1019.5
20260503001034 0 90 0.0 0.0 0.00 0.15 0.00 91 1019.6
20260503000025 0 90 0.0 0.0 0.00 0.15 0.00 91 1019.5
20260502235525 0 90 0.0 0.0 0.00 0.15 0.00 91 1019.6
20260502235021 0 90 0.0 0.0 0.00 0.15 0.00 91 1019.5
20260502234036 0 90 0.0 0.0 0.00 0.15 0.00 91 1019.7
20260502233535 0 90 0.0 0.0 0.00 0.15 0.00 90 1019.8
20260502233028 1 90 0.0 0.0 0.00 0.15 0.00 90 1019.8
20260502232518 1 90 0.0 0.0 0.00 0.15 0.00 90 1019.8
20260502232033 1 90 0.0 0.0 0.00 0.15 0.00 90 1019.6
20260502231532 1 90 0.0 0.0 0.00 0.15 0.00 90 1019.6
20260502231028 1 90 0.0 0.0 0.00 0.15 0.00 90 1019.6